SCP
-0 -0 0 0 -0 -0 -0 -0 -0 0 -0 -0 0 0 0 0 0 0 0 0 -0 -0 -0 0 0 0 0 0 0 0 0 0 0 -0 0 0 0 0 0 0 0 0 -0
-0 -0 0 0 -0 0 -0 -0 -0 -0 -0 -0 0 0 0 0 0 0 0 0 0 0 0 0 0 0 0 0 0 -0 0 -0 0 0 0 0 -0 0 0 0 0 0 -0
-0 -0 -0 -0 -0 -0 -0 -0 -0 -0 -0 0 0 0 0 0 0 0 0 0 0 0 0 0 0 0 0 0 0 0 0 -0 0 -0 0 0 0 0 0 0 0 -0 -0
-0 -0 -0 -0 -0 -0 0 -0 -0 -0 -0 0 0 0 0 0 0 0 0 0 0 0 0 0 0 0 0 0 0 0 -0 0 0 0 0 0 0 0 0 -0 -0 -0 -0
-0 -0 -0 -0 -0 -0 -0 -0 0 0 0 -0 -0 0 0 0 0 0 0 0 0 0 0 0 0 0 0 0 0 0 0 0 0 0 0 0 0 0 0 0 0 -0 -0
-0 -0 -0 -0 0 -0 -0 -0 -0 0 -0 -0 -0 0 0 0 0 0 0 0 0 0 0 0 0 0 0 0 0 0 0 0 0 0 0 0 0 0 0 0 0 0 0
0 -0 -0 0 0 0 0 0 0 0 -0 0 -0 0 0 0 0 0 0 0 0 0 0 0 0 0 0 0 0 0 0 0 0 0 0 0 0 0 0 0 0 0 0
0 -0 0 0 0 0 0 -0 0 0 -0 0 0 0 0 -0 0 0 0 0 0 0 0 0 0 0 0 0 0 0 0 0 0 0 0 0 0 0 0 0 0 0 0
-0 -0 -0 0 0 0 0 -0 0 -0 -0 -0 -0 -0 0 0 0 0 0 0 0 0 0 0 0 0 0 0 0 0 0 0 0 0 0 0 0 0 0 0 0 0 0
-0 -0 -0 -0 -0 -0 -0 0 0 -0 0 -0 0 -0 -0 0 0 0 0 0 0 0 0 0 0 0 0 0 0 0 0 0 0 0 0 0 0 0 0 0 0 0 0
-0 -0 -0 -0 -0 -0 -0 0 0 0 -0 -0 0 -0 0 0 0 0 0 0 0 0 -0 -0 0 0 0 0 0 1 0 0 0 0 0 1 1 1 0 0 0 0 0
-0 -0 -0 -0 -0 -0 -0 -0 -0 -0 0 0 0 0 0 0 0 0 0 0 0 0 0 0 0 0 0 0 0 1 0 0 0 0 0 1 1 1 1 0 0 0 0
-0 -0 -0 -0 -0 -0 -0 -0 -0 0 0 0 0 0 0 0 0 0 0 0 0 0 0 0 0 0 0 1 1 1 0 0 0 1 1 1 1 0 0 0 0 0 0
0 -0 -0 -0 -0 -0 -0 -0 -0 0 0 0 0 0 0 0 0 0 0 0 0 0 0 0 0 0 0 0 1 0 0 0 0 0 1 1 1 1 1 0 0 1 0
-0 0 -0 -0 -0 -0 -0 -0 -0 0 0 0 0 0 0 0 0 0 0 0 0 0 0 0 0 0 0 0 0 0 0 0 0 0 0 1 1 1 1 1 1 1 1
-0 -0 -0 -0 -0 -0 -0 0 -0 -0 0 0 0 0 0 0 0 0 0 0 0 0 0 0 0 0 0 0 0 0 0 0 0 0 0 1 1 1 1 1 1 1 1
0 -0 0 0 -0 -0 -0 0 -0 0 0 -0 0 0 0 0 0 0 0 0 0 0 0 0 0 0 0 0 0 0 0 0 0 0 0 0 0 1 1 1 1 1 1
0 0 0 0 -0 0 -0 -0 -0 -0 -0 -0 -0 -0 0 0 0 0 0 0 0 0 0 0 0 0 0 0 0 0 0 0 0 0 0 0 0 0 0 1 1 1 1
0 0 0 -0 -0 0 0 -0 0 0 0 0 0 -0 0 -0 0 0 0 0 0 0 0 0 0 0 0 0 0 0 0 0 0 0 0 0 0 0 0 0 0 1 1
0 -0 0 -0 -0 0 0 -0 -0 0 0 0 0 0 0 0 -0 0 0 0 0 0 0 0 0 0 0 0 0 0 0 0 0 0 0 0 0 0 0 0 0 0 1
-0 -0 -0 -0 0 0 0 -0 -0 0 0 0 0 0 0 -0 -0 0 0 0 0 0 0 0 0 0 0 0 0 0 0 0 0 0 0 0 0 0 0 0 0 0 0
-0 -0 -0 -0 -0 -0 -0 0 0 0 -0 0 0 0 0 -0 0 0 0 0 0 0 0 0 0 0 0 0 0 0 0 0 0 0 0 0 0 0 0 0 0 0 0
0 -0 0 0 -0 -0 -0 0 0 0 0 0 -0 0 0 0 0 0 0 0 0 0 0 0 0 0 0 0 0 0 0 0 0 0 0 0 0 0 0 0 0 0 0
0 -0 0 0 0 0 0 0 -0 -0 0 0 -0 -0 0 0 0 0 0 0 0 0 0 0 0 0 0 0 0 0 0 0 0 0 0 0 0 0 0 0 0 0 0
0 0 0 0 0 0 -0 0 0 0 0 0 0 -0 -0 -0 0 0 0 0 0 0 0 0 0 0 0 0 0 0 0 0 0 0 0 0 0 -0 -0 -0 0 0 0
0 0 0 0 0 0 0 -0 -0 -0 0 0 0 -0 -0 0 0 -0 -0 -0 0 0 0 0 0 0 0 0 0 0 0 0 0 0 0 0 0 -0 -0 0 0 -0 0
Wind_Speed_500mb
33 31 31 31 31 33 34 34 34 36 36 38 35 37 36 34 33 33 33 34 33 33 35 36 38 38 41 41 38 38 39 40 41 42 43 37 33 32 32 30 31 29 28
39 36 32 32 34 34 32 32 34 36 37 34 31 33 34 33 29 30 33 34 32 34 36 40 37 42 45 43 42 41 38 39 39 38 37 34 31 30 31 31 31 28 30
39 38 35 33 32 32 33 31 31 33 33 33 30 29 31 34 34 33 33 32 32 34 39 40 42 42 43 42 44 41 37 31 31 31 34 33 29 30 29 28 30 29 27
41 40 37 33 31 30 30 29 29 30 30 30 30 29 29 33 35 35 34 33 33 38 40 41 43 44 41 42 46 41 34 28 27 25 28 31 30 27 26 28 26 27 27
44 39 34 30 27 27 28 27 26 26 26 27 30 29 29 33 35 36 35 35 38 42 43 40 37 32 30 30 31 32 31 27 24 21 22 28 25 23 22 25 23 20 19
42 37 32 29 26 26 24 26 26 26 26 28 31 29 29 28 31 31 33 34 38 37 36 35 35 34 37 29 27 23 24 25 20 19 20 23 25 25 22 22 20 20 18
41 36 33 29 29 25 27 25 30 28 26 31 33 30 30 28 29 29 31 32 34 36 35 32 29 28 31 31 30 28 25 18 17 17 19 19 23 20 21 19 17 18 18
38 37 32 29 26 25 25 27 29 25 26 29 32 29 31 27 28 30 33 33 34 37 37 32 29 24 26 30 28 27 21 19 15 15 18 16 15 18 16 16 16 15 14
37 34 32 30 26 25 28 28 30 28 30 29 28 34 33 31 29 30 33 33 35 38 37 33 29 28 27 28 23 21 19 17 14 15 14 14 15 14 14 14 14 14 15
35 31 30 30 29 30 28 29 30 28 29 28 32 33 31 33 32 34 34 35 36 38 38 33 26 21 23 23 19 16 16 16 15 15 14 13 13 14 14 13 14 14 14
33 31 29 28 30 31 32 31 30 29 28 29 32 36 37 38 38 36 37 38 40 39 39 37 28 20 17 12 15 11 13 15 15 15 14 13 13 14 13 13 12 12 13
38 34 32 31 30 31 32 34 37 34 32 31 35 38 41 39 39 43 43 42 40 40 37 34 30 23 12 3 9 8 16 17 14 14 14 14 14 13 14 13 13 13 13
38 39 37 35 35 34 36 36 32 36 35 35 40 44 42 42 45 44 40 35 34 33 27 21 16 12 10 5 6 13 18 20 17 16 15 15 15 15 16 15 15 15 15
41 39 41 39 40 42 39 39 37 35 36 39 41 41 42 43 42 36 33 26 27 30 24 19 17 13 14 14 15 16 20 25 27 21 17 18 17 18 18 18 18 19 21
40 44 43 41 40 36 35 38 37 37 38 40 39 41 44 42 30 30 25 26 29 25 19 25 24 15 11 10 10 14 18 17 21 26 26 23 23 23 23 23 24 25 26
39 37 41 38 32 30 37 37 38 37 34 34 38 39 40 29 23 26 23 22 22 18 12 15 15 11 9 16 14 12 13 13 16 18 24 27 25 26 28 28 29 28 25
38 35 34 30 29 31 32 33 38 37 36 31 32 30 27 26 23 21 19 16 18 19 20 12 13 10 1 6 14 16 11 5 10 14 21 25 26 27 28 29 27 25 25
36 30 32 29 34 28 32 31 34 36 34 28 28 26 24 21 22 18 16 15 20 17 12 8 7 3 5 2 5 8 14 14 13 14 15 19 20 18 20 22 19 20 23
33 31 34 30 33 30 32 33 32 32 30 22 26 31 23 24 20 15 14 12 14 12 10 12 9 3 2 6 4 4 4 4 5 10 15 16 17 16 16 17 14 15 20
34 32 38 31 30 29 29 34 33 33 29 28 26 29 24 27 20 16 18 16 12 11 11 8 6 1 4 6 4 1 2 1 3 7 9 11 17 22 19 18 16 16 21
35 31 36 39 30 29 27 38 30 32 30 28 29 29 28 30 25 25 19 16 14 9 12 10 3 11 3 2 2 5 3 8 6 3 5 6 8 8 14 19 19 20 22
39 35 33 27 34 33 24 27 24 28 28 27 25 26 31 31 31 29 24 19 17 12 11 7 3 6 5 5 2 4 7 4 8 8 1 5 7 8 8 10 13 20 19
43 36 30 28 32 35 27 31 28 27 24 26 31 25 23 29 32 28 25 23 19 16 15 12 6 5 2 3 1 3 4 4 6 6 2 3 3 7 5 11 10 12 20
44 38 30 33 30 35 31 31 27 24 23 22 24 23 22 28 30 33 28 26 21 18 22 17 7 6 4 6 5 2 2 1 4 3 7 8 2 6 9 9 11 12 19
44 41 34 41 37 37 36 26 27 23 22 22 24 24 26 30 25 24 31 25 17 15 23 19 9 5 8 9 5 7 5 3 3 4 1 2 4 7 8 11 17 15 23
52 50 41 47 45 41 45 33 25 26 26 29 28 26 29 29 23 24 34 24 18 16 25 21 15 7 3 8 11 7 4 3 8 11 12 10 10 7 10 11 18 14 25
Wind_Direction_500mb
155 152 142 143 142 133 125 127 127 120 116 121 119 115 114 113 113 112 112 110 109 108 107 107 108 113 108 107 107 107 106 107 105 104 101 97 101 100 105 94 92 93 97
152 150 145 140 140 137 135 131 128 129 122 123 117 109 115 114 111 110 111 112 111 112 114 113 114 108 109 110 110 109 104 103 101 101 101 92 94 100 104 93 91 92 92
150 145 145 141 140 137 136 133 130 132 131 126 114 116 114 113 115 115 116 115 116 119 117 116 115 120 117 114 115 109 100 101 99 102 105 100 98 88 94 96 90 90 97
147 145 141 144 146 143 141 144 140 135 134 131 129 119 115 115 117 113 115 117 122 128 126 123 116 116 114 110 108 104 97 93 90 100 107 102 105 97 92 93 98 94 97
149 145 143 143 142 144 145 150 151 147 140 136 132 128 124 121 123 117 114 119 127 128 126 119 113 117 127 121 107 101 91 85 93 107 117 109 103 91 101 97 95 104 111
146 144 143 141 141 136 138 135 141 142 143 136 138 134 128 126 126 123 120 121 133 136 129 120 111 100 102 122 99 96 88 82 88 108 111 106 101 103 110 99 100 101 103
146 146 146 143 142 142 143 138 138 137 139 142 142 135 134 134 130 126 126 124 130 139 135 122 109 106 106 110 96 80 72 82 88 94 115 116 107 105 108 115 92 102 104
147 147 144 140 137 139 143 138 137 134 139 142 143 139 142 142 134 121 122 127 128 140 140 128 115 105 104 108 92 78 77 84 96 96 107 113 115 109 101 102 94 98 99
148 145 141 138 140 139 143 136 133 134 136 135 142 143 143 142 134 125 125 127 134 144 143 131 120 109 106 99 90 78 72 66 87 89 95 105 106 100 97 95 95 83 81
148 142 141 141 138 134 132 135 135 132 135 136 139 143 142 136 132 131 128 128 133 142 146 141 127 125 114 101 87 67 51 53 79 80 83 92 101 98 93 90 87 74 73
153 146 142 136 139 136 135 133 132 127 131 133 141 143 142 135 133 128 123 121 122 129 139 148 150 147 122 98 69 54 40 48 70 76 79 85 80 79 78 78 74 70 68
155 151 144 143 141 137 136 131 128 125 124 126 139 140 137 134 131 127 122 122 125 129 133 138 145 157 153 49 19 31 46 48 68 74 77 79 75 75 74 71 70 67 63
148 149 146 146 144 139 138 136 139 126 119 125 129 135 138 136 134 133 127 123 128 129 130 135 141 164 185 203 70 84 57 56 69 75 78 79 78 77 74 70 66 63 59
152 151 149 148 144 143 137 138 132 135 127 125 132 136 137 137 131 132 128 124 126 124 118 108 103 115 99 74 99 90 78 62 65 72 79 83 82 80 77 74 72 66 60
154 154 150 145 145 149 153 146 140 134 124 127 134 139 140 137 132 132 128 124 138 127 103 113 107 112 89 72 89 81 80 72 61 65 70 77 81 80 79 76 72 65 57
162 160 158 153 160 152 150 146 149 141 139 134 138 135 138 139 146 149 131 123 134 136 125 122 126 112 80 59 72 74 75 66 68 70 70 70 78 80 76 68 62 57 52
167 160 160 166 167 175 160 155 159 148 145 140 144 148 152 150 149 143 141 120 134 134 137 138 143 145 151 63 58 56 75 102 66 78 83 83 78 75 69 64 61 55 47
167 166 164 177 186 173 169 171 164 160 158 165 173 158 161 159 159 150 139 119 141 138 128 125 173 179 156 132 32 46 68 96 98 83 87 79 69 66 61 59 54 51 38
168 164 171 162 156 167 173 172 170 173 171 173 168 169 184 181 166 165 155 150 149 141 125 123 121 106 244 81 49 12 26 40 80 76 73 60 59 62 63 54 49 48 35
167 166 169 160 162 160 173 184 192 180 186 190 172 184 181 188 189 178 170 163 165 165 154 132 105 115 100 344 307 62 24 245 47 81 70 63 62 53 52 66 70 45 36
168 162 177 171 174 172 166 170 172 182 188 192 193 200 196 203 202 192 190 198 201 191 177 176 91 128 105 54 237 157 287 295 304 327 10 4 44 22 33 60 60 43 29
173 163 172 175 178 175 171 169 168 184 191 189 196 201 204 201 203 202 209 206 200 191 199 184 147 142 68 67 129 268 302 278 289 292 359 345 337 358 43 54 44 34 12
184 178 186 182 178 179 180 179 170 174 181 191 191 188 187 196 201 208 209 206 200 202 200 200 156 163 95 12 48 197 280 313 311 298 265 311 11 6 51 61 50 9 4
195 190 196 187 189 190 184 186 184 183 191 191 191 178 193 192 199 208 206 194 208 207 197 194 174 146 21 36 64 69 74 316 323 327 254 270 329 66 48 35 35 10 25
198 200 201 191 195 198 197 194 194 215 212 190 175 188 187 173 189 202 192 198 203 200 182 190 189 132 44 46 77 97 99 94 360 324 256 357 353 333 339 8 6 15 27
200 204 202 197 199 206 204 201 199 207 203 196 188 180 179 182 189 188 195 202 202 199 190 198 203 188 140 82 76 97 55 112 94 67 61 61 14 324 302 324 350 36 20
Wind_Speed_850mb
33 31 31 31 31 33 34 34 34 36 36 38 35 37 36 34 33 33 33 34 33 33 35 36 38 38 41 41 38 38 39 40 41 42 43 37 33 32 32 30 31 29 28
39 36 32 32 34 34 32 32 34 36 37 34 31 33 34 33 29 30 33 34 32 34 36 40 37 42 45 43 42 41 38 39 39 38 37 34 31 30 31 31 31 28 30
39 38 35 33 32 32 33 31 31 33 33 33 30 29 31 34 34 33 33 32 32 34 39 40 42 42 43 42 44 41 37 31 31 31 34 33 29 30 29 28 30 29 27
41 40 37 33 31 30 30 29 29 30 30 30 30 29 29 33 35 35 34 33 33 38 40 41 43 44 41 42 46 41 34 28 27 25 28 31 30 27 26 28 26 27 27
44 39 34 30 27 27 28 27 26 26 26 27 30 29 29 33 35 36 35 35 38 42 43 40 37 32 30 30 31 32 31 27 24 21 22 28 25 23 22 25 23 20 19
42 37 32 29 26 26 24 26 26 26 26 28 31 29 29 28 31 31 33 34 38 37 36 35 35 34 37 29 27 23 24 25 20 19 20 23 25 25 22 22 20 20 18
41 36 33 29 29 25 27 25 30 28 26 31 33 30 30 28 29 29 31 32 34 36 35 32 29 28 31 31 30 28 25 18 17 17 19 19 23 20 21 19 17 18 18
38 37 32 29 26 25 25 27 29 25 26 29 32 29 31 27 28 30 33 33 34 37 37 32 29 24 26 30 28 27 21 19 15 15 18 16 15 18 16 16 16 15 14
37 34 32 30 26 25 28 28 30 28 30 29 28 34 33 31 29 30 33 33 35 38 37 33 29 28 27 28 23 21 19 17 14 15 14 14 15 14 14 14 14 14 15
35 31 30 30 29 30 28 29 30 28 29 28 32 33 31 33 32 34 34 35 36 38 38 33 26 21 23 23 19 16 16 16 15 15 14 13 13 14 14 13 14 14 14
33 31 29 28 30 31 32 31 30 29 28 29 32 36 37 38 38 36 37 38 40 39 39 37 28 20 17 12 15 11 13 15 15 15 14 13 13 14 13 13 12 12 13
38 34 32 31 30 31 32 34 37 34 32 31 35 38 41 39 39 43 43 42 40 40 37 34 30 23 12 3 9 8 16 17 14 14 14 14 14 13 14 13 13 13 13
38 39 37 35 35 34 36 36 32 36 35 35 40 44 42 42 45 44 40 35 34 33 27 21 16 12 10 5 6 13 18 20 17 16 15 15 15 15 16 15 15 15 15
41 39 41 39 40 42 39 39 37 35 36 39 41 41 42 43 42 36 33 26 27 30 24 19 17 13 14 14 15 16 20 25 27 21 17 18 17 18 18 18 18 19 21
40 44 43 41 40 36 35 38 37 37 38 40 39 41 44 42 30 30 25 26 29 25 19 25 24 15 11 10 10 14 18 17 21 26 26 23 23 23 23 23 24 25 26
39 37 41 38 32 30 37 37 38 37 34 34 38 39 40 29 23 26 23 22 22 18 12 15 15 11 9 16 14 12 13 13 16 18 24 27 25 26 28 28 29 28 25
38 35 34 30 29 31 32 33 38 37 36 31 32 30 27 26 23 21 19 16 18 19 20 12 13 10 1 6 14 16 11 5 10 14 21 25 26 27 28 29 27 25 25
36 30 32 29 34 28 32 31 34 36 34 28 28 26 24 21 22 18 16 15 20 17 12 8 7 3 5 2 5 8 14 14 13 14 15 19 20 18 20 22 19 20 23
33 31 34 30 33 30 32 33 32 32 30 22 26 31 23 24 20 15 14 12 14 12 10 12 9 3 2 6 4 4 4 4 5 10 15 16 17 16 16 17 14 15 20
34 32 38 31 30 29 29 34 33 33 29 28 26 29 24 27 20 16 18 16 12 11 11 8 6 1 4 6 4 1 2 1 3 7 9 11 17 22 19 18 16 16 21
35 31 36 39 30 29 27 38 30 32 30 28 29 29 28 30 25 25 19 16 14 9 12 10 3 11 3 2 2 5 3 8 6 3 5 6 8 8 14 19 19 20 22
39 35 33 27 34 33 24 27 24 28 28 27 25 26 31 31 31 29 24 19 17 12 11 7 3 6 5 5 2 4 7 4 8 8 1 5 7 8 8 10 13 20 19
43 36 30 28 32 35 27 31 28 27 24 26 31 25 23 29 32 28 25 23 19 16 15 12 6 5 2 3 1 3 4 4 6 6 2 3 3 7 5 11 10 12 20
44 38 30 33 30 35 31 31 27 24 23 22 24 23 22 28 30 33 28 26 21 18 22 17 7 6 4 6 5 2 2 1 4 3 7 8 2 6 9 9 11 12 19
44 41 34 41 37 37 36 26 27 23 22 22 24 24 26 30 25 24 31 25 17 15 23 19 9 5 8 9 5 7 5 3 3 4 1 2 4 7 8 11 17 15 23
52 50 41 47 45 41 45 33 25 26 26 29 28 26 29 29 23 24 34 24 18 16 25 21 15 7 3 8 11 7 4 3 8 11 12 10 10 7 10 11 18 14 25
Wind_Direction_850mb
155 152 142 143 142 133 125 127 127 120 116 121 119 115 114 113 113 112 112 110 109 108 107 107 108 113 108 107 107 107 106 107 105 104 101 97 101 100 105 94 92 93 97
152 150 145 140 140 137 135 131 128 129 122 123 117 109 115 114 111 110 111 112 111 112 114 113 114 108 109 110 110 109 104 103 101 101 101 92 94 100 104 93 91 92 92
150 145 145 141 140 137 136 133 130 132 131 126 114 116 114 113 115 115 116 115 116 119 117 116 115 120 117 114 115 109 100 101 99 102 105 100 98 88 94 96 90 90 97
147 145 141 144 146 143 141 144 140 135 134 131 129 119 115 115 117 113 115 117 122 128 126 123 116 116 114 110 108 104 97 93 90 100 107 102 105 97 92 93 98 94 97
149 145 143 143 142 144 145 150 151 147 140 136 132 128 124 121 123 117 114 119 127 128 126 119 113 117 127 121 107 101 91 85 93 107 117 109 103 91 101 97 95 104 111
146 144 143 141 141 136 138 135 141 142 143 136 138 134 128 126 126 123 120 121 133 136 129 120 111 100 102 122 99 96 88 82 88 108 111 106 101 103 110 99 100 101 103
146 146 146 143 142 142 143 138 138 137 139 142 142 135 134 134 130 126 126 124 130 139 135 122 109 106 106 110 96 80 72 82 88 94 115 116 107 105 108 115 92 102 104
147 147 144 140 137 139 143 138 137 134 139 142 143 139 142 142 134 121 122 127 128 140 140 128 115 105 104 108 92 78 77 84 96 96 107 113 115 109 101 102 94 98 99
148 145 141 138 140 139 143 136 133 134 136 135 142 143 143 142 134 125 125 127 134 144 143 131 120 109 106 99 90 78 72 66 87 89 95 105 106 100 97 95 95 83 81
148 142 141 141 138 134 132 135 135 132 135 136 139 143 142 136 132 131 128 128 133 142 146 141 127 125 114 101 87 67 51 53 79 80 83 92 101 98 93 90 87 74 73
153 146 142 136 139 136 135 133 132 127 131 133 141 143 142 135 133 128 123 121 122 129 139 148 150 147 122 98 69 54 40 48 70 76 79 85 80 79 78 78 74 70 68
155 151 144 143 141 137 136 131 128 125 124 126 139 140 137 134 131 127 122 122 125 129 133 138 145 157 153 49 19 31 46 48 68 74 77 79 75 75 74 71 70 67 63
148 149 146 146 144 139 138 136 139 126 119 125 129 135 138 136 134 133 127 123 128 129 130 135 141 164 185 203 70 84 57 56 69 75 78 79 78 77 74 70 66 63 59
152 151 149 148 144 143 137 138 132 135 127 125 132 136 137 137 131 132 128 124 126 124 118 108 103 115 99 74 99 90 78 62 65 72 79 83 82 80 77 74 72 66 60
154 154 150 145 145 149 153 146 140 134 124 127 134 139 140 137 132 132 128 124 138 127 103 113 107 112 89 72 89 81 80 72 61 65 70 77 81 80 79 76 72 65 57
162 160 158 153 160 152 150 146 149 141 139 134 138 135 138 139 146 149 131 123 134 136 125 122 126 112 80 59 72 74 75 66 68 70 70 70 78 80 76 68 62 57 52
167 160 160 166 167 175 160 155 159 148 145 140 144 148 152 150 149 143 141 120 134 134 137 138 143 145 151 63 58 56 75 102 66 78 83 83 78 75 69 64 61 55 47
167 166 164 177 186 173 169 171 164 160 158 165 173 158 161 159 159 150 139 119 141 138 128 125 173 179 156 132 32 46 68 96 98 83 87 79 69 66 61 59 54 51 38
168 164 171 162 156 167 173 172 170 173 171 173 168 169 184 181 166 165 155 150 149 141 125 123 121 106 244 81 49 12 26 40 80 76 73 60 59 62 63 54 49 48 35
167 166 169 160 162 160 173 184 192 180 186 190 172 184 181 188 189 178 170 163 165 165 154 132 105 115 100 344 307 62 24 245 47 81 70 63 62 53 52 66 70 45 36
168 162 177 171 174 172 166 170 172 182 188 192 193 200 196 203 202 192 190 198 201 191 177 176 91 128 105 54 237 157 287 295 304 327 10 4 44 22 33 60 60 43 29
173 163 172 175 178 175 171 169 168 184 191 189 196 201 204 201 203 202 209 206 200 191 199 184 147 142 68 67 129 268 302 278 289 292 359 345 337 358 43 54 44 34 12
184 178 186 182 178 179 180 179 170 174 181 191 191 188 187 196 201 208 209 206 200 202 200 200 156 163 95 12 48 197 280 313 311 298 265 311 11 6 51 61 50 9 4
195 190 196 187 189 190 184 186 184 183 191 191 191 178 193 192 199 208 206 194 208 207 197 194 174 146 21 36 64 69 74 316 323 327 254 270 329 66 48 35 35 10 25
198 200 201 191 195 198 197 194 194 215 212 190 175 188 187 173 189 202 192 198 203 200 182 190 189 132 44 46 77 97 99 94 360 324 256 357 353 333 339 8 6 15 27
200 204 202 197 199 206 204 201 199 207 203 196 188 180 179 182 189 188 195 202 202 199 190 198 203 188 140 82 76 97 55 112 94 67 61 61 14 324 302 324 350 36 20